TimeEDT,TemperatureF,Dew PointF,Humidity,Sea Level PressureIn,VisibilityMPH,Wind Direction,Wind SpeedMPH,Gust SpeedMPH,PrecipitationIn,Events,Conditions,WindDirDegrees,DateUTC
2:35 AM,59.0,57.2,94,29.88,5.0,Calm,Calm,-,N/A,,Clear,0,2012-10-19 06:35:00
2:55 AM,59.0,55.4,88,29.87,7.0,Calm,Calm,-,N/A,,Clear,0,2012-10-19 06:55:00
3:15 AM,57.2,55.4,94,29.87,4.0,Calm,Calm,-,N/A,,Clear,0,2012-10-19 07:15:00
3:35 AM,57.2,55.4,94,29.86,2.0,Calm,Calm,-,N/A,,Clear,0,2012-10-19 07:35:00
3:55 AM,57.2,55.4,94,29.86,4.0,Calm,Calm,-,N/A,,Clear,0,2012-10-19 07:55:00
4:15 AM,55.4,53.6,94,29.86,3.0,Calm,Calm,-,N/A,,Clear,0,2012-10-19 08:15:00
4:35 AM,55.4,53.6,94,29.86,7.0,Calm,Calm,-,N/A,,Clear,0,2012-10-19 08:35:00
4:55 AM,55.4,53.6,94,29.86,2.5,Calm,Calm,-,N/A,,Clear,0,2012-10-19 08:55:00
5:15 AM,55.4,53.6,94,29.85,1.2,Calm,Calm,-,N/A,,Mist,0,2012-10-19 09:15:00
5:35 AM,55.4,53.6,94,29.85,2.0,Calm,Calm,-,N/A,,Clear,0,2012-10-19 09:35:00
5:55 AM,53.6,53.6,100,29.85,2.0,Calm,Calm,-,N/A,,Clear,0,2012-10-19 09:55:00
6:15 AM,53.6,51.8,94,29.85,5.0,Calm,Calm,-,N/A,,Clear,0,2012-10-19 10:15:00
6:35 AM,53.6,51.8,94,29.86,2.5,Calm,Calm,-,N/A,,Clear,0,2012-10-19 10:35:00
6:55 AM,53.6,51.8,94,29.86,2.5,Calm,Calm,-,N/A,,Clear,0,2012-10-19 10:55:00
7:15 AM,51.8,50.0,94,29.86,1.2,Calm,Calm,-,N/A,,Mist,0,2012-10-19 11:15:00
7:35 AM,51.8,50.0,94,29.86,2.5,Calm,Calm,-,N/A,,Clear,0,2012-10-19 11:35:00
7:55 AM,51.8,50.0,94,29.86,3.0,Calm,Calm,-,N/A,,Clear,0,2012-10-19 11:55:00
8:15 AM,51.8,50.0,94,29.87,3.0,Calm,Calm,-,N/A,,Clear,0,2012-10-19 12:15:00
8:35 AM,50.0,50.0,100,29.88,5.0,Calm,Calm,-,N/A,,Clear,0,2012-10-19 12:35:00
8:55 AM,50.0,50.0,100,29.88,5.0,Calm,Calm,-,N/A,,Clear,0,2012-10-19 12:55:00
9:15 AM,51.8,50.0,94,29.89,5.0,Calm,Calm,-,N/A,,Clear,0,2012-10-19 13:15:00
9:35 AM,51.8,50.0,94,29.89,5.0,Calm,Calm,-,N/A,,Clear,0,2012-10-19 13:35:00
9:55 AM,55.4,53.6,94,29.90,7.0,South,4.6,-,N/A,,Scattered Clouds,190,2012-10-19 13:55:00
10:15 AM,64.4,60.8,88,29.90,10.0,SSW,4.6,-,N/A,,Scattered Clouds,210,2012-10-19 14:15:00
10:35 AM,75.2,69.8,83,29.90,10.0,SW,4.6,-,N/A,,Scattered Clouds,220,2012-10-19 14:35:00
10:55 AM,78.8,71.6,78,29.90,10.0,SSW,5.8,-,N/A,,Mostly Cloudy,210,2012-10-19 14:55:00
11:15 AM,80.6,71.6,74,29.90,10.0,Calm,Calm,-,N/A,,Mostly Cloudy,0,2012-10-19 15:15:00
11:35 AM,82.4,69.8,66,29.90,10.0,Calm,Calm,-,N/A,,Scattered Clouds,0,2012-10-19 15:35:00
11:55 AM,82.4,69.8,66,29.90,10.0,WNW,4.6,-,N/A,,Scattered Clouds,300,2012-10-19 15:55:00
12:15 PM,84.2,69.8,62,29.89,10.0,SW,4.6,-,N/A,,Clear,230,2012-10-19 16:15:00
12:35 PM,86.0,69.8,58,29.88,10.0,WSW,4.6,-,N/A,,Clear,250,2012-10-19 16:35:00
12:55 PM,86.0,69.8,58,29.88,10.0,West,3.5,-,N/A,,Clear,270,2012-10-19 16:55:00
1:15 PM,86.0,68.0,55,29.88,10.0,West,5.8,-,N/A,,Clear,280,2012-10-19 17:15:00
1:35 PM,87.8,68.0,52,29.86,10.0,SW,4.6,-,N/A,,Clear,230,2012-10-19 17:35:00
1:55 PM,87.8,68.0,52,29.86,10.0,WNW,6.9,-,N/A,,Clear,300,2012-10-19 17:55:00
2:15 PM,87.8,64.4,46,29.86,10.0,Calm,Calm,-,N/A,,Clear,0,2012-10-19 18:15:00
2:35 PM,87.8,66.2,49,29.85,10.0,Calm,Calm,-,N/A,,Clear,0,2012-10-19 18:35:00
2:55 PM,89.6,66.2,46,29.84,10.0,WSW,4.6,-,N/A,,Clear,240,2012-10-19 18:55:00
3:15 PM,87.8,68.0,52,29.83,10.0,WNW,6.9,-,N/A,,Scattered Clouds,290,2012-10-19 19:15:00
3:35 PM,87.8,68.0,52,29.83,10.0,WNW,3.5,-,N/A,,Scattered Clouds,290,2012-10-19 19:35:00
3:55 PM,87.8,66.2,49,29.83,10.0,West,4.6,-,N/A,,Mostly Cloudy,270,2012-10-19 19:55:00
4:15 PM,87.8,66.2,49,29.83,10.0,West,4.6,-,N/A,,Scattered Clouds,260,2012-10-19 20:15:00
4:35 PM,87.8,64.4,46,29.83,10.0,West,4.6,-,N/A,,Scattered Clouds,270,2012-10-19 20:35:00
4:55 PM,86.0,66.2,51,29.83,10.0,West,3.5,-,N/A,,Mostly Cloudy,260,2012-10-19 20:55:00
5:15 PM,86.0,66.2,51,29.83,10.0,WSW,3.5,-,N/A,,Mostly Cloudy,240,2012-10-19 21:15:00
5:35 PM,84.2,66.2,55,29.83,10.0,West,4.6,-,N/A,,Scattered Clouds,280,2012-10-19 21:35:00
5:55 PM,84.2,68.0,58,29.83,10.0,Calm,Calm,-,N/A,,Mostly Cloudy,0,2012-10-19 21:55:00
6:15 PM,82.4,68.0,62,29.83,10.0,WSW,3.5,-,N/A,,Overcast,240,2012-10-19 22:15:00
6:35 PM,82.4,68.0,62,29.83,10.0,WSW,3.5,-,N/A,,Mostly Cloudy,250,2012-10-19 22:35:00
6:55 PM,80.6,69.8,70,29.83,10.0,Calm,Calm,-,N/A,,Scattered Clouds,0,2012-10-19 22:55:00
7:15 PM,78.8,68.0,69,29.83,10.0,Calm,Calm,-,N/A,,Clear,0,2012-10-19 23:15:00
7:35 PM,78.8,68.0,69,29.84,10.0,Calm,Calm,-,N/A,,Clear,0,2012-10-19 23:35:00
7:55 PM,78.8,68.0,69,29.85,10.0,Calm,Calm,-,N/A,,Clear,0,2012-10-19 23:55:00
8:15 PM,75.2,68.0,78,29.86,10.0,Calm,Calm,-,N/A,,Scattered Clouds,0,2012-10-20 00:15:00
8:35 PM,71.6,68.0,88,29.86,10.0,Calm,Calm,-,N/A,,Mostly Cloudy,0,2012-10-20 00:35:00
8:55 PM,71.6,68.0,88,29.87,10.0,Calm,Calm,-,N/A,,Overcast,0,2012-10-20 00:55:00
9:15 PM,71.6,68.0,88,29.87,10.0,Calm,Calm,-,N/A,,Mostly Cloudy,0,2012-10-20 01:15:00
9:35 PM,71.6,68.0,88,29.88,10.0,Calm,Calm,-,N/A,,Scattered Clouds,0,2012-10-20 01:35:00
9:55 PM,71.6,68.0,88,29.88,10.0,Calm,Calm,-,N/A,,Mostly Cloudy,0,2012-10-20 01:55:00
10:15 PM,71.6,68.0,88,29.89,10.0,Calm,Calm,-,N/A,,Mostly Cloudy,0,2012-10-20 02:15:00
10:35 PM,69.8,68.0,94,29.89,10.0,Calm,Calm,-,N/A,,Clear,0,2012-10-20 02:35:00
10:55 PM,69.8,68.0,94,29.90,10.0,Calm,Calm,-,N/A,,Scattered Clouds,0,2012-10-20 02:55:00
11:15 PM,69.8,68.0,94,29.90,10.0,Calm,Calm,-,N/A,,Scattered Clouds,0,2012-10-20 03:15:00
11:35 PM,69.8,66.2,88,29.90,10.0,Calm,Calm,-,N/A,,Scattered Clouds,0,2012-10-20 03:35:00
11:55 PM,69.8,66.2,88,29.89,10.0,Calm,Calm,-,N/A,,Scattered Clouds,0,2012-10-20 03:55:00